This is the latest recevied weather packets stored in our database for station/object YN9ZMM-13. If no packets are shown the sender has not sent any weather packets the latest 10 day(s).
| Time | Temp. | Humidity | Pressure | Rain* | Wind** | Luminosity | Snow |
|---|---|---|---|---|---|---|---|
| 1777858293 | 22.78° C | 54% | 1013 hPa | 0 mm | - | - | - |
| 1777857693 | 25° C | 51% | 1012 hPa | 0 mm | - | - | - |
| 1777857093 | 24.44° C | 51% | 1012 hPa | 0 mm | - | - | - |
| 1777856492 | 23.89° C | 51% | 1012 hPa | 0 mm | - | - | - |
| 1777855892 | 25° C | 48% | 1012 hPa | 0 mm | - | - | - |
| 1777855292 | 25° C | 48% | 1012 hPa | 0 mm | - | - | - |
| 1777854691 | 26.11° C | 41% | 1012 hPa | 0 mm | - | - | - |
| 1777854089 | 25.56° C | 41% | 1011 hPa | 0 mm | - | - | - |
| 1777853488 | 27.22° C | 41% | 1011 hPa | 0 mm | - | - | - |
| 1777852888 | 26.67° C | 41% | 1011 hPa | 0 mm | - | - | - |
| 1777852287 | 27.78° C | 41% | 1011 hPa | 0 mm | - | - | - |
| 1777851687 | 27.78° C | 39% | 1010 hPa | 0 mm | - | - | - |
| 1777851086 | 29.44° C | 33% | 1009 hPa | 0 mm | - | - | - |
| 1777850486 | 28.89° C | 33% | 1009 hPa | 0 mm | - | - | - |
| 1777849886 | 28.33° C | 33% | 1009 hPa | 0 mm | - | - | - |
| 1777849285 | 31.67° C | 31% | 1009 hPa | 0 mm | - | - | - |
| 1777848686 | 31.67° C | 31% | 1009 hPa | 0 mm | - | - | - |
| 1777848085 | 31.11° C | 31% | 1009 hPa | 0 mm | - | - | - |
| 1777847485 | 30.56° C | 31% | 1009 hPa | 0 mm | - | - | - |
| 1777846884 | 30° C | 31% | 1009 hPa | 0 mm | - | - | - |
| 1777846284 | 29.44° C | 31% | 1009 hPa | 0 mm | - | - | - |
| 1777845684 | 28.89° C | 31% | 1009 hPa | 0 mm | - | - | - |
| 1777845084 | 28.33° C | 31% | 1009 hPa | 0 mm | - | - | - |
| 1777844483 | 27.78° C | 31% | 1009 hPa | 0 mm | - | - | - |
| 1777843883 | 34.44° C | 30% | 1009 hPa | 0 mm | - | - | - |
* Rain latest hour (hover to see other rain measurements)
** Current wind speed in m/s (hover to see current wind gust speed)